Torna al catalogo

CZ-4 DEB

AttivoSSO
NORAD 37623·DEBRIS·🇨🇳 China

Lanciato Sep 3, 1990 da Taiyuan Satellite Launch Center

Loading…

Prossimi Passaggi (prossime 24 ore)

TLE

AggiornatoSource: Space-Track

Epoca: Sep 14, 2026, 03:36 UTC

1 37623U 90081DK  26257.15065134  .00000333  00000-0  17808-3 0  9992
2 37623  98.7466 243.4309 0020286 245.6085 114.2974 14.19669104679849

Traccia CZ-4 DEB in tempo reale con AllMySat

Download on the App Store